Regional Weather Roundup
Issued by NWS

Home | Current Version | Previous Version | Graphics & Text | Print | Product List | Glossary On
Versions: 1 2 3 4 5 6 7 8 9 10 11 12 13 14 15 16 17 18 19 20 21 22 23 24 25 26 27 28 29 30 31 32 33 34 35 36 37 38 39 40 41 42 43 44 45 46 47 48 49 50
071
ASUS44 KJAN 221210
RWRMS

MISSISSIPPI HOURLY WEATHER ROUNDUP
NATIONAL WEATHER SERVICE JACKSON MS
600 AM CST SAT NOV 22 2014

NOTE: "FAIR: INDICATES FEW OR NO CLOUDS BELOW 12,000 FEET WITH NO
SIGNIFICANT WEATHER AND/OR OBSTRUCTIONS TO VISIBILITY.

MSZ001>002-007>008-010>013-018>021-025>028-034>036-221300-
NORTHWEST MISSISSIPPI

CITY           SKY/WX    TMP DP  RH WIND       PRES   REMARKS
CLARKSDALE     CLOUDY    52  48  87 SE8       30.26S
CLEVELAND      LGT RAIN  53  49  85 SE7       30.26R
GREENWOOD      CLOUDY    54  44  69 SE10      30.28S
6HR MIN TEMP:  52; 6HR MAX TEMP:  57; 6HR PCP: TRACE;

GREENVILLE     CLOUDY    54  48  80 SE8       30.25S
6HR MIN TEMP:  53; 6HR MAX TEMP:  57;

GRENADA        PTSUNNY   46  45  93 CALM      30.29F
OLIVE BRANCH   MOCLDY    52  48  87 S6        30.27S
OXFORD         FAIR      48  41  76 SE7       30.31S
TUNICA         PTSUNNY   50  45  81 SE8       30.27S
$$

MSZ003>006-009-014>017-022>024-029>033-037>039-221300-
NORTHEAST MISSISSIPPI

CITY           SKY/WX    TMP DP  RH WIND       PRES   REMARKS
COLUMBUS AFB   PTCLDY    44  40  85 SE5       30.33R
6HR MIN TEMP:  39; 6HR MAX TEMP:  47;

CORINTH        PTSUNNY   48  39  71 SE5       30.31S
GOLDN TRIANGLE MOCLDY    46  39  76 SE9       30.31F
STARKVILLE     CLOUDY    50  43  76 SE5       30.31F
TUPELO         PTCLDY    46  40  79 SE5       30.32S
6HR MIN TEMP:  43; 6HR MAX TEMP:  53;

$$

MSZ040-058-221300-
CENTRAL MISSISSIPPI

CITY           SKY/WX    TMP DP  RH WIND       PRES   REMARKS
JACKSON INTL   PTCLDY    48  43  82 CALM      30.27S
6HR MIN TEMP:  45; 6HR MAX TEMP:  52;

JACKSON HAWKNS MOCLDY    49  44  83 E6        30.27F
6HR MIN TEMP:  49; 6HR MAX TEMP:  53;

MERIDIAN KEY   CLEAR     40  37  89 CALM      30.31S
6HR MIN TEMP:  39; 6HR MAX TEMP:  52;

MERIDIAN NAS   CLEAR     41  39  93 E7        30.32F
6HR MIN TEMP:  40; 6HR MAX TEMP:  46;

RAYMOND        FAIR      48  43  81 MISG      30.26F
VICKSBURG      MOCLDY    53  47  79 SE6       30.25S
6HR MIN TEMP:  52; 6HR MAX TEMP:  56; 6HR PCP: TRACE;

$$

MSZ059>079-221300-
SOUTH MISSISSIPPI

CITY           SKY/WX    TMP DP  RH WIND       PRES   REMARKS
BROOKHAVEN     PTSUNNY   52  45  76 E3        30.26S
HATTIESBURG    CLEAR     40  38  93 CALM      30.28F
6HR MIN TEMP:  39; 6HR MAX TEMP:  44;

MCCOMB         CLEAR     51  43  74 E3        30.23S
6HR MIN TEMP:  50; 6HR MAX TEMP:  53;

NATCHEZ        CLOUDY    55  46  71 E5        30.25R
6HR MIN TEMP:  52; 6HR MAX TEMP:  57;

PINE BELT      CLEAR     46  37  71 E6        30.27F
6HR MIN TEMP:  43; 6HR MAX TEMP:  48;

$$

MSZ080>082-221300-
COASTAL MISSISSIPPI

CITY           SKY/WX    TMP DP  RH WIND       PRES   REMARKS
BILOXI         CLEAR     53  46  77 E9        30.24S
6HR MIN TEMP:  50; 6HR MAX TEMP:  56;

PASCAGOULA     CLEAR     49  44  83 NE6       30.25F
6HR MIN TEMP:  41; 6HR MAX TEMP:  51;

GULFPORT       CLEAR     52  45  77 NE6       30.24S
6HR MIN TEMP:  46; 6HR MAX TEMP:  53;

$$



USA.gov is the U.S. government's official web portal to all federal, state and local government web resources and services.